CZ-3C DEB, 40195

Orbit data source: Space-Track

CZ-3C DEB, 40195 is space debris in HEO originally from a launch on Fri, 24 Feb 2012 UTC launched from the Xichang Space Center, China (XSC). Debris objects in space refer to the collection of defunct objects orbiting the Earth. Examples of debris include non-operational satellites, rocket bodies, and fragments generated from explosions, collisions, or faulty payload assembly.

Loading next visibility...
Identifier
40195, 2012-008E
Orbit
HEO
Country
Flag of CNCN / PRC
Related business
Manufacturer
CALT
Mission
Spacecraft
Bus & Motor
Unknown
Mass
Unknown
Launch date (UTC)
2012-02-24 (14 years ago)
Launch vehicle
Unknown
Launch site
Xichang Space Center, China (XSC)
Object type
Payload
Rocket body
Debris
Shape & HBR
Unknown shape, 0.2 m
Radar Cross Section
Medium (>0.1 m² and <1 m²)

Expand to show TLE details & history
Last TLE update: 2 days ago

TLE from 2 days ago
0 CZ-3C DEB
1 40195U 12008E   26205.02207865  .00000420  00000-0  10800-2 0  9992
2 40195  20.0362 167.5207 7113810 234.7450  37.1717  2.39922941 18026
Epoch: 2026-07-24T00:31Z
TLE epoch observation values (Epoch: 2026-07-24T00:31:47.595Z)
Latitude
-0.0001°
Longitude
-142.31281°
Altitude
13,358.261 km
Speed
4.845 km/s
True Right ascension
11h 09m 33s
True Declination
0° 00' 00"
Sunlit
Object was in daylight at epoch
Visualization orbit readout
Latitude
Unknown
Longitude
Unknown
Altitude
Unknown
Speed
Unknown
Apparent Right ascension
Unknown
Apparent Declination
Unknown
Sunlit
N/A
Visualization observer readout
Local Sidereal Time
19:21:41
Azimuth
Unknown
Elevation
Unknown
Doppler factor
Unknown
Orbital elements
Apogee altitude
33,966.209 km
Perigee altitude
425.81 km
Semi-major axis
23,574.147 km
Eccentricity
0.71138
Inclination
20.0362°
RAAN
167.5207°
Arg. of periapsis
234.745°
True anomaly
125.27374°
Mean anomaly
37.1717°
Eccentric anomaly
76.86436°
Mean motion
0.59964 °/min
Orbital period
600.36 mins
BSTAR
0.00108
Loading maneuver chart data...
Computing Atmospheric mass density...
Loading historical data...
Loading historical data...
Loading historical data...
Loading historical data...
Loading historical data...
Loading historical data...
Loading historical data...

Documentation

Showing up to 5 results
|